Overview Statistics Trail Chart Weather Telemetry Raw packets
 

This is the latest recevied weather packets stored in our database for station/object VE6HFD-WX. If no packets are shown the sender has not sent any weather packets the latest 10 day(s).

<< 37 38 39 40 41 42 43 >>
Time Temp. Humidity Pressure Rain* Wind** Luminosity Snow
1777785636 8.33° C 64% 1010.1 hPa 0 mm - - -
1777785336 8.89° C 64% 1010.1 hPa 0 mm - - -
1777785036 8.89° C 62% 1010.1 hPa 0 mm - - -
1777784736 8.89° C 63% 1010.2 hPa 0 mm - - -
1777784406 8.33° C 65% 1010.3 hPa 0 mm - - -
1777784106 8.33° C 65% 1010.3 hPa 0 mm - - -
1777783806 8.33° C 64% 1010.3 hPa 0 mm - - -
1777783506 8.89° C 62% 1010.5 hPa 0 mm - - -
1777783206 8.89° C 60% 1010.4 hPa 0 mm - - -
1777782876 8.33° C 63% 1010.4 hPa 0 mm - - -
1777782546 8.33° C 65% 1010.4 hPa 0 mm - - -
1777782216 8.89° C 62% 1010.4 hPa 0 mm - - -
1777781886 8.89° C 62% 1010.3 hPa 0 mm - - -
1777781556 9.44° C 60% 1010.3 hPa 0 mm - - -
1777781226 10° C 61% 1010.2 hPa 0 mm - - -
1777780896 10° C 61% 1010.2 hPa 0 mm - - -
1777780566 10° C 60% 1010.3 hPa 0 mm - - -
1777780266 10.56° C 59% 1010.3 hPa 0 mm - - -
1777779936 10.56° C 57% 1010.3 hPa 0 mm - - -
1777779636 10.56° C 58% 1010.3 hPa 0 mm - - -
1777779336 10.56° C 57% 1010.4 hPa 0 mm - - -
1777779006 11.11° C 56% 1010.4 hPa 0 mm - - -
1777778706 11.11° C 55% 1010.3 hPa 0 mm - - -
1777778406 11.67° C 55% 1010.3 hPa 0 mm - - -
1777778076 11.67° C 53% 1010.2 hPa 0 mm - - -

* Rain latest hour (hover to see other rain measurements)
** Current wind speed in m/s (hover to see current wind gust speed)